Weather Roundup
Issued by NWS Springfield, MO

Home | Current Version | Previous Version | Text Only | Print | Product List | Glossary On
Versions: 1 2 3 4 5 6 7 8 9 10 11 12 13 14 15 16 17 18 19 20 21 22 23 24 25 26 27 28 29 30 31 32 33 34 35 36 37 38 39 40 41 42 43 44 45 46 47 48 49 50
000
NZUS99 KSGF 221657
HRRSGF

HOURLY WEATHER
NATIONAL WEATHER SERVICE SPRINGFIELD MO
1200 PM CDT WED MAR 22 2017

......SGF CWA......

CITY           SKY/WX    TMP DP  RH WIND       PRES   REMARKS
SPRINGFIELD    SUNNY     54  28  36 E15G23    30.29F
JOPLIN         CLOUDY    53  28  38 SE16G22   30.27F
WEST PLAINS    SUNNY     53  33  46 E9        30.34F
ROLLA          SUNNY     47  28  47 E15       30.38S
BRANSON        CLOUDY    46  36  66 SE9G16    30.32F

......SURROUNDING SGF CWA......

CITY           SKY/WX    TMP DP  RH WIND       PRES   REMARKS
CHANUTE        PTSUNNY   56  24  29 E15       30.28S
PARSONS        CLOUDY    54  29  38 VRB7G17   30.28R
COFFEYVILLE    CLOUDY    54  34  46 E14       30.27R
EMPORIA        SUNNY     54  25  32 E15       30.29F
HARRISON AR    CLOUDY    47  36  65 E12       30.32F

......KANSAS AND MISSOURI......

CITY           SKY/WX    TMP DP  RH WIND       PRES   REMARKS
KANSAS CTY INT PTSUNNY   50  24  36 E15       30.37S
SEDALIA        CLOUDY    49  30  48 E13G23    30.37F
ST JOSEPH      SUNNY     49  25  39 E10       30.39F
ST LOUIS       PTSUNNY   45  21  38 E13       30.47F
WICHITA        CLOUDY    52  30  43 SE16      30.25F
TOPEKA         PTSUNNY   50  24  36 E9        30.34F
OLATHE         CLOUDY    50  25  37 E14G20    30.35R

......TENNESSEE......

CITY           SKY/WX    TMP DP  RH WIND       PRES   REMARKS
MEMPHIS        PTSUNNY   48  43  82 NE10      30.33R
NASHVILLE      CLOUDY    52  23  32 N18       30.35F

......ARKANSAS.......

CITY           SKY/WX    TMP DP  RH WIND       PRES   REMARKS
FAYETTEVILLE   CLOUDY    53  41  63 E10       30.25F
FT SMITH       CLOUDY    56  41  57 E15       30.25R
LITTLE ROCK    PTSUNNY   55  43  63 NE15      30.31F

......OKLAHOMA.......

CITY           SKY/WX    TMP DP  RH WIND       PRES   REMARKS
TULSA          CLOUDY    59  44  57 E10       30.22S
PONCA CITY     CLOUDY    55  36  48 E13G23    30.22F
MCALESTER      CLOUDY    65  49  56 SE10      30.18R
OKLAHOMA CITY  MOSUNNY   63  46  54 E14       30.17S

......IOWA............

CITY           SKY/WX    TMP DP  RH WIND       PRES   REMARKS
DES MOINES     NOT AVBL
QUAD CITIES    SUNNY     37  17  44 E12       30.56S WCI  29

......ILLINOIS........

CITY           SKY/WX    TMP DP  RH WIND       PRES   REMARKS
QUINCY         NOT AVBL
CHICAGO        PTSUNNY   35  18  49 E14       30.58S WCI  26



USA.gov is the U.S. government's official web portal to all federal, state and local government web resources and services.